M I D A S
Marine Information and Data Acquisition System
Tripno 2001 of the Zeeleeuw from 2010-12-14 08:10:19 to 2010-12-14 15:06:46
Back to CruiseResearch ActivitiesStationsMapUnderway DataData graphs

EquipmentUnitsComments
TimeDGPSUTC
LatitudeDGPSDM.mWGS84
LongitudeDGPSDM.mWGS84
SpeedMeteo Stationm/sRelative wind speed
DirectionMeteo StationdegRelative wind direction
TemperatureMeteo Stationdeg CelciusAir temperature
PressureMeteo StationPaAtmospheric pressure
HumidityMeteo Station%Relative humidity
Missing or incorrect values are displayed as -999
Metereological data collected by the RV Zeeleeuw from 2010-12-14 07:22:28 to 2010-12-14 15:12:00
                                                                                    Next 1000 lines
Time Latitude Longitude Speed Direction Temperature Pressure Humidity
2010-12-14 07:22:38 51°13.662 2°55.959 -999 250 -0.8 102940 32
2010-12-14 07:22:42 51°13.662 2°55.959 -999 254 -0.8 102950 32
2010-12-14 07:22:48 51°13.662 2°55.959 -999 307 -0.8 102950 32
2010-12-14 07:22:53 51°13.662 2°55.959 -999 22 -0.9 102950 31
2010-12-14 07:22:58 51°13.662 2°55.959 -999 241 -0.9 102950 31
2010-12-14 07:23:02 51°13.662 2°55.959 -999 22 -0.9 102940 32
2010-12-14 07:23:07 51°13.662 2°55.96 -999 253 -0.9 102940 32
2010-12-14 07:23:12 51°13.662 2°55.96 -999 22 -0.8 102940 32
2010-12-14 07:23:18 51°13.662 2°55.959 -999 307 -0.8 102940 32
2010-12-14 07:23:23 51°13.662 2°55.959 -999 22 -0.9 102930 32
2010-12-14 07:23:27 51°13.662 2°55.959 -999 247 -0.9 102930 32
2010-12-14 07:23:33 51°13.662 2°55.959 -999 22 -0.9 102940 32
2010-12-14 07:23:38 51°13.662 2°55.959 -999 253 -0.9 102940 32
2010-12-14 07:23:43 51°13.662 2°55.959 -999 22 -0.9 102930 32
2010-12-14 07:23:48 51°13.662 2°55.959 -999 240 -0.9 102930 32
2010-12-14 07:23:53 51°13.662 2°55.959 -999 22 -0.9 102940 32
2010-12-14 07:23:58 51°13.662 2°55.959 -999 244 -0.9 102940 32
2010-12-14 07:24:02 51°13.662 2°55.959 -999 253 -0.9 102940 32
2010-12-14 07:24:08 51°13.662 2°55.959 -999 245 -0.9 102940 32
2010-12-14 07:24:13 51°13.662 2°55.959 -999 22 -0.9 102930 32
2010-12-14 07:24:18 51°13.662 2°55.959 -999 239 -0.9 102930 32
2010-12-14 07:24:22 51°13.662 2°55.959 -999 254 -0.8 102930 32
2010-12-14 07:24:28 51°13.662 2°55.959 -999 307 -0.8 102930 32
2010-12-14 07:24:33 51°13.662 2°55.959 -999 22 -0.8 102940 32
2010-12-14 07:24:38 51°13.662 2°55.959 -999 244 -0.8 102940 32
2010-12-14 07:24:43 51°13.662 2°55.959 -999 22 -0.8 102930 32
2010-12-14 07:24:48 51°13.662 2°55.959 -999 307 -0.8 102930 32
2010-12-14 07:24:54 51°13.662 2°55.959 -999 252 -0.8 102930 32
2010-12-14 07:24:58 51°13.662 2°55.959 -999 244 -0.8 102930 32
2010-12-14 07:25:03 51°13.662 2°55.959 -999 22 -0.8 102930 32
2010-12-14 07:25:09 51°13.662 2°55.959 -999 252 -0.8 102930 32
2010-12-14 07:25:13 51°13.662 2°55.959 -999 22 -0.8 102940 32
2010-12-14 07:25:18 51°13.662 2°55.959 -999 243 -0.8 102940 32
2010-12-14 07:25:24 51°13.662 2°55.959 -999 250 -0.8 102930 32
2010-12-14 07:25:29 51°13.662 2°55.959 -999 259 -0.8 102930 32
2010-12-14 07:25:33 51°13.662 2°55.959 -999 248 -0.8 102930 31
2010-12-14 07:25:38 51°13.662 2°55.959 -999 33 -0.8 102930 31
2010-12-14 07:25:43 51°13.662 2°55.96 -999 22 -0.8 102930 32
2010-12-14 07:25:49 51°13.662 2°55.96 -999 34 -0.8 102930 32
2010-12-14 07:25:54 51°13.662 2°55.96 -999 22 -0.8 102930 32
2010-12-14 07:25:58 51°13.662 2°55.96 -999 241 -0.8 102930 32
2010-12-14 07:26:03 51°13.662 2°55.96 -999 22 -0.8 102930 32
2010-12-14 07:26:09 51°13.662 2°55.96 -999 239 -0.8 102930 32
2010-12-14 07:26:13 51°13.662 2°55.96 -999 22 -0.8 102930 32
2010-12-14 07:26:18 51°13.662 2°55.96 -999 242 -0.8 102930 32
2010-12-14 07:26:23 51°13.662 2°55.96 -999 250 -0.8 102930 32
2010-12-14 07:26:29 51°13.662 2°55.96 -999 248 -0.8 102930 32
2010-12-14 07:26:34 51°13.662 2°55.96 -999 258 -0.8 102930 32
2010-12-14 07:26:38 51°13.662 2°55.96 -999 34 -0.8 102930 32
2010-12-14 07:26:43 51°13.662 2°55.96 -999 265 -0.8 102940 32
2010-12-14 07:26:48 51°13.662 2°55.96 -999 239 -0.8 102940 32
2010-12-14 07:26:53 51°13.662 2°55.96 -999 22 -0.8 102940 32
2010-12-14 07:26:58 51°13.662 2°55.96 -999 248 -0.8 102940 32
2010-12-14 07:27:03 51°13.662 2°55.96 -999 22 -0.8 102940 32
2010-12-14 07:27:08 51°13.662 2°55.96 -999 242 -0.8 102940 32
2010-12-14 07:27:13 51°13.662 2°55.96 -999 22 -0.8 102930 32
2010-12-14 07:27:18 51°13.662 2°55.96 -999 237 -0.8 102930 32
2010-12-14 07:27:23 51°13.662 2°55.96 -999 22 -0.8 102940 32
2010-12-14 07:27:28 51°13.662 2°55.96 -999 251 -0.8 102940 32
2010-12-14 07:27:33 51°13.662 2°55.96 -999 249 -0.8 102940 32
2010-12-14 07:27:38 51°13.662 2°55.96 -999 247 -0.8 102940 32
2010-12-14 07:27:43 51°13.662 2°55.96 -999 22 -0.8 102940 32
2010-12-14 07:27:49 51°13.662 2°55.96 -999 247 -0.8 102940 32
2010-12-14 07:27:53 51°13.662 2°55.96 -999 22 -0.8 102940 32
2010-12-14 07:27:58 51°13.662 2°55.96 -999 245 -0.8 102940 32
2010-12-14 07:28:03 51°13.662 2°55.96 -999 254 -0.8 102940 32
2010-12-14 07:28:08 51°13.662 2°55.96 -999 244 -0.8 102940 32
2010-12-14 07:28:13 51°13.662 2°55.96 -999 22 -0.8 102940 31
2010-12-14 07:28:18 51°13.662 2°55.96 -999 256 -0.8 102940 31
2010-12-14 07:28:23 51°13.662 2°55.96 -999 254 -0.8 102940 32
2010-12-14 07:28:28 51°13.662 2°55.96 -999 249 -0.8 102940 32
2010-12-14 07:28:33 51°13.662 2°55.959 -999 22 -0.8 102940 32
2010-12-14 07:28:38 51°13.661 2°55.961 -999 243 -0.8 102940 32
2010-12-14 07:28:43 51°13.662 2°55.961 -999 22 -0.8 102940 32
2010-12-14 07:28:48 51°13.662 2°55.961 -999 237 -0.8 102940 32
2010-12-14 07:28:54 51°13.662 2°55.961 -999 22 -0.8 102940 32
2010-12-14 07:28:58 51°13.662 2°55.961 -999 251 -0.8 102940 32
2010-12-14 07:29:03 51°13.662 2°55.961 -999 250 -0.8 102950 32
2010-12-14 07:29:08 51°13.662 2°55.961 -999 254 -0.8 102950 32
2010-12-14 07:29:13 51°13.662 2°55.961 -999 252 -0.8 102940 32
2010-12-14 07:29:18 51°13.662 2°55.961 -999 240 -0.8 102940 32
2010-12-14 07:29:22 51°13.662 2°55.961 -999 22 -0.8 102940 32
2010-12-14 07:29:27 51°13.662 2°55.96 -999 250 -0.8 102940 32
2010-12-14 07:29:33 51°13.662 2°55.96 -999 252 -0.8 102950 32
2010-12-14 07:29:38 51°13.662 2°55.96 -999 247 -0.8 102950 32
2010-12-14 07:29:44 51°13.662 2°55.96 -999 22 -0.8 102940 32
2010-12-14 07:29:48 51°13.662 2°55.96 -999 307 -0.8 102940 32
2010-12-14 07:29:54 51°13.662 2°55.96 -999 22 -0.8 102940 32
2010-12-14 07:29:58 51°13.662 2°55.96 -999 307 -0.8 102940 32
2010-12-14 07:30:03 51°13.662 2°55.96 -999 22 -0.8 102940 32
2010-12-14 07:30:09 51°13.662 2°55.96 -999 238 -0.8 102940 32
2010-12-14 07:30:13 51°13.662 2°55.96 -999 22 -0.8 102940 32
2010-12-14 07:30:18 51°13.662 2°55.96 -999 256 -0.8 102940 32
2010-12-14 07:30:24 51°13.662 2°55.96 -999 263 -0.8 102940 32
2010-12-14 07:30:29 51°13.662 2°55.96 -999 260 -0.8 102940 32
2010-12-14 07:30:34 51°13.662 2°55.96 -999 256 -0.8 102940 32
2010-12-14 07:30:38 51°13.662 2°55.96 5.8 251 -0.8 102940 32
2010-12-14 07:30:43 51°13.662 2°55.96 5 22 -0.8 102940 32
2010-12-14 07:30:49 51°13.662 2°55.96 4.4 243 -0.8 102940 32
2010-12-14 07:30:54 51°13.662 2°55.96 4.4 252 -0.8 102940 31
2010-12-14 07:30:58 51°13.662 2°55.96 5.3 248 -0.8 102940 31
2010-12-14 07:31:03 51°13.662 2°55.96 4.4 20 -0.8 102940 31
2010-12-14 07:31:08 51°13.661 2°55.96 5.8 254 -0.8 102940 31
2010-12-14 07:31:14 51°13.661 2°55.96 4.7 257 -0.8 102940 33
2010-12-14 07:31:18 51°13.661 2°55.96 4.6 251 -0.8 102940 33
2010-12-14 07:31:23 51°13.661 2°55.96 5.2 251 -0.8 102940 32
2010-12-14 07:31:28 51°13.662 2°55.96 6.1 252 -0.8 102940 32
2010-12-14 07:31:33 51°13.662 2°55.96 4.9 246 -0.8 102940 32
2010-12-14 07:31:38 51°13.662 2°55.96 4.3 249 -0.8 102940 32
2010-12-14 07:31:43 51°13.662 2°55.96 4.3 254 -0.8 102940 31
2010-12-14 07:31:48 51°13.662 2°55.96 4.6 249 -0.8 102940 31
2010-12-14 07:31:53 51°13.662 2°55.96 4.3 249 -0.8 102950 31
2010-12-14 07:31:58 51°13.662 2°55.96 2.8 244 -0.8 102950 31
2010-12-14 07:32:03 51°13.662 2°55.96 2.7 20 -0.8 102950 32
2010-12-14 07:32:08 51°13.661 2°55.96 1.8 246 -0.8 102950 32
2010-12-14 07:32:13 51°13.661 2°55.96 1.6 252 -0.8 102940 33
2010-12-14 07:32:18 51°13.661 2°55.961 3.1 247 -0.8 102940 33
2010-12-14 07:32:22 51°13.662 2°55.961 2.8 19 -0.8 102940 31
2010-12-14 07:32:27 51°13.661 2°55.96 3.7 242 -0.8 102940 31
2010-12-14 07:32:32 51°13.661 2°55.96 5.5 21 -0.8 102950 31
2010-12-14 07:32:37 51°13.661 2°55.96 4.1 305 -0.8 102950 31
2010-12-14 07:32:42 51°13.661 2°55.96 5.4 24 -0.8 102950 30
2010-12-14 07:32:47 51°13.661 2°55.96 3.6 238 -0.8 102950 30
2010-12-14 07:32:52 51°13.661 2°55.96 4.3 18 -0.8 102950 31
2010-12-14 07:32:56 51°13.661 2°55.96 5.5 251 -0.8 102950 31
2010-12-14 07:33:01 51°13.661 2°55.96 4.2 250 -0.8 102950 33
2010-12-14 07:33:06 51°13.661 2°55.96 4.2 236 -0.8 102950 33
2010-12-14 07:33:11 51°13.661 2°55.96 3.6 25 -0.8 102950 33
2010-12-14 07:33:16 51°13.661 2°55.96 3.6 241 -0.8 102950 33
2010-12-14 07:33:21 51°13.661 2°55.96 3.9 22 -0.8 102950 33
2010-12-14 07:33:26 51°13.661 2°55.96 4.2 251 -0.8 102950 33
2010-12-14 07:33:30 51°13.661 2°55.96 4.2 253 -0.8 102950 31
2010-12-14 07:33:35 51°13.661 2°55.96 2.1 256 -0.8 102950 31
2010-12-14 07:33:40 51°13.661 2°55.96 1.9 20 -0.8 102950 31
2010-12-14 07:33:45 51°13.661 2°55.96 3.2 250 -0.8 102950 31
2010-12-14 07:33:50 51°13.661 2°55.96 3 19 -0.8 102950 32
2010-12-14 07:33:54 51°13.661 2°55.96 3 260 -0.8 102950 32
2010-12-14 07:34:00 51°13.661 2°55.96 4.1 257 -0.7 102950 30
2010-12-14 07:34:05 51°13.66 2°55.96 4.2 244 -0.7 102950 30
2010-12-14 07:34:10 51°13.66 2°55.96 3.4 22 -0.8 102950 33
2010-12-14 07:34:15 51°13.66 2°55.96 5.7 250 -0.8 102950 33
2010-12-14 07:34:20 51°13.66 2°55.96 4.4 20 -0.7 102950 30
2010-12-14 07:34:25 51°13.66 2°55.96 2.9 255 -0.7 102950 30
2010-12-14 07:34:30 51°13.66 2°55.96 3.1 253 -0.8 102960 33
2010-12-14 07:34:34 51°13.66 2°55.96 5.4 35 -0.8 102960 33
2010-12-14 07:34:40 51°13.66 2°55.96 4.4 254 -0.8 102950 31
2010-12-14 07:34:45 51°13.66 2°55.96 2.2 244 -0.8 102950 31
2010-12-14 07:34:50 51°13.66 2°55.96 1.1 253 -0.7 102950 33
2010-12-14 07:34:54 51°13.661 2°55.96 4.9 249 -0.7 102950 33
2010-12-14 07:34:59 51°13.661 2°55.96 6.8 251 -0.7 102950 34
2010-12-14 07:35:05 51°13.661 2°55.96 4.7 31 -0.7 102950 34
2010-12-14 07:35:10 51°13.661 2°55.96 3.5 25 -0.7 102950 32
2010-12-14 07:35:15 51°13.661 2°55.96 5.3 304 -0.7 102950 32
2010-12-14 07:35:19 51°13.661 2°55.96 4.1 18 -0.8 102950 32
2010-12-14 07:35:25 51°13.661 2°55.96 4.4 251 -0.8 102950 32
2010-12-14 07:35:30 51°13.661 2°55.96 5 251 -0.7 102950 31
2010-12-14 07:35:35 51°13.661 2°55.96 2.9 239 -0.7 102950 31
2010-12-14 07:35:40 51°13.661 2°55.96 2.5 22 -0.7 102950 31
2010-12-14 07:35:45 51°13.661 2°55.96 0.6 308 -0.7 102950 31
2010-12-14 07:35:50 51°13.661 2°55.96 3.6 25 -0.7 102950 33
2010-12-14 07:35:55 51°13.661 2°55.96 4.8 245 -0.7 102950 33
2010-12-14 07:35:59 51°13.661 2°55.96 4.5 19 -0.7 102950 31
2010-12-14 07:36:05 51°13.661 2°55.96 4.2 29 -0.7 102950 31
2010-12-14 07:36:10 51°13.661 2°55.96 4.6 17 -0.7 102950 30
2010-12-14 07:36:15 51°13.661 2°55.96 4.4 249 -0.7 102950 30
2010-12-14 07:36:20 51°13.661 2°55.96 4.2 253 -0.7 102950 32
2010-12-14 07:36:25 51°13.661 2°55.96 3.8 309 -0.7 102950 32
2010-12-14 07:36:30 51°13.661 2°55.96 3.9 25 -0.7 102950 32
2010-12-14 07:36:34 51°13.661 2°55.96 3.2 249 -0.7 102950 32
2010-12-14 07:36:40 51°13.661 2°55.96 3.1 26 -0.7 102950 33
2010-12-14 07:36:45 51°13.661 2°55.96 4.2 239 -0.7 102950 33
2010-12-14 07:36:50 51°13.661 2°55.96 6 18 -0.7 102950 33
2010-12-14 07:36:55 51°13.661 2°55.96 5.7 308 -0.7 102950 33
2010-12-14 07:37:00 51°13.661 2°55.96 4.8 19 -0.7 102950 31
2010-12-14 07:37:05 51°13.661 2°55.96 4.3 257 -0.7 102950 31
2010-12-14 07:37:10 51°13.661 2°55.96 6 247 -0.7 102950 31
2010-12-14 07:37:14 51°13.661 2°55.96 6.4 240 -0.7 102950 31
2010-12-14 07:37:20 51°13.661 2°55.96 5.1 23 -0.7 102950 31
2010-12-14 07:37:25 51°13.661 2°55.96 4.4 248 -0.7 102950 31
2010-12-14 07:37:30 51°13.661 2°55.96 4.4 19 -0.7 102960 31
2010-12-14 07:37:35 51°13.661 2°55.96 6.6 305 -0.7 102960 31
2010-12-14 07:37:39 51°13.661 2°55.96 4.7 19 -0.7 102950 33
2010-12-14 07:37:45 51°13.661 2°55.96 3.6 249 -0.7 102950 33
2010-12-14 07:37:50 51°13.661 2°55.96 3.1 253 -0.7 102960 31
2010-12-14 07:37:54 51°13.661 2°55.96 2.8 250 -0.7 102960 31
2010-12-14 07:38:00 51°13.661 2°55.96 1.9 245 -0.7 102960 32
2010-12-14 07:38:05 51°13.661 2°55.96 3 303 -0.7 102960 32
2010-12-14 07:38:10 51°13.661 2°55.96 2.1 22 -0.7 102950 31
2010-12-14 07:38:15 51°13.661 2°55.96 0.2 251 -0.7 102950 31
2010-12-14 07:38:19 51°13.661 2°55.96 1.1 248 -0.7 102960 32
2010-12-14 07:38:25 51°13.661 2°55.96 0.1 239 -0.7 102960 32
2010-12-14 07:38:30 51°13.661 2°55.96 3.6 252 -0.7 102950 31
2010-12-14 07:38:35 51°13.661 2°55.96 3.9 246 -0.7 102950 31
2010-12-14 07:38:40 51°13.661 2°55.96 3 246 -0.7 102950 32
2010-12-14 07:38:45 51°13.661 2°55.96 0.3 243 -0.7 102950 32
2010-12-14 07:38:50 51°13.661 2°55.96 0.2 252 -0.8 102950 30
2010-12-14 07:38:55 51°13.661 2°55.96 0.1 307 -0.8 102950 30
2010-12-14 07:39:00 51°13.661 2°55.96 -999 263 -0.8 102960 31
2010-12-14 07:39:05 51°13.661 2°55.96 3.4 243 -0.8 102960 31
2010-12-14 07:39:10 51°13.661 2°55.96 5.9 255 -0.8 102960 32
2010-12-14 07:39:14 51°13.661 2°55.96 3.7 265 -0.8 102960 32
2010-12-14 07:39:20 51°13.661 2°55.96 2.5 259 -0.8 102960 32
2010-12-14 07:39:25 51°13.661 2°55.96 2.5 246 -0.8 102960 32
2010-12-14 07:39:30 51°13.661 2°55.96 1.6 247 -0.8 102960 33
2010-12-14 07:39:34 51°13.661 2°55.96 2.7 241 -0.8 102960 33
2010-12-14 07:39:40 51°13.661 2°55.96 0.5 251 -0.8 102960 31
2010-12-14 07:39:45 51°13.661 2°55.96 0.1 245 -0.8 102960 31
2010-12-14 07:39:50 51°13.661 2°55.96 0.1 22 -0.8 102960 31
2010-12-14 07:39:55 51°13.661 2°55.96 -999 246 -0.8 102960 31
2010-12-14 07:39:59 51°13.661 2°55.96 -999 22 -0.8 102960 32
2010-12-14 07:40:05 51°13.661 2°55.96 -999 251 -0.8 102960 32
2010-12-14 07:40:10 51°13.661 2°55.96 -999 251 -0.8 102960 32
2010-12-14 07:40:15 51°13.661 2°55.96 -999 34 -0.8 102960 32
2010-12-14 07:40:20 51°13.661 2°55.961 -999 22 -0.8 102960 32
2010-12-14 07:40:25 51°13.661 2°55.961 -999 249 -0.8 102960 32
2010-12-14 07:40:30 51°13.661 2°55.961 -999 22 -0.8 102960 32
2010-12-14 07:40:34 51°13.661 2°55.961 -999 241 -0.8 102960 32
2010-12-14 07:40:40 51°13.661 2°55.961 -999 22 -0.8 102960 32
2010-12-14 07:40:45 51°13.661 2°55.961 3.6 242 -0.8 102960 32
2010-12-14 07:40:50 51°13.661 2°55.961 3.2 25 -0.8 102960 32
2010-12-14 07:40:55 51°13.661 2°55.961 2.7 255 -0.8 102960 32
2010-12-14 07:41:00 51°13.661 2°55.961 4 250 -0.8 102960 32
2010-12-14 07:41:05 51°13.66 2°55.96 3.6 253 -0.8 102960 32
2010-12-14 07:41:10 51°13.66 2°55.96 3.9 256 -0.8 102960 31
2010-12-14 07:41:14 51°13.66 2°55.96 3.9 33 -0.8 102960 31
2010-12-14 07:41:20 51°13.66 2°55.959 4.3 21 -0.8 102960 31
2010-12-14 07:41:25 51°13.66 2°55.959 6.1 252 -0.8 102960 31
2010-12-14 07:41:30 51°13.66 2°55.959 4.6 252 -0.8 102960 30
2010-12-14 07:41:34 51°13.66 2°55.959 7.5 258 -0.8 102960 30
2010-12-14 07:41:40 51°13.66 2°55.959 5.4 251 -0.8 102960 31
2010-12-14 07:41:45 51°13.659 2°55.959 4.1 246 -0.8 102960 31
2010-12-14 07:41:50 51°13.659 2°55.959 4.3 257 -0.8 102970 31
2010-12-14 07:41:55 51°13.659 2°55.959 3.6 311 -0.8 102970 31
2010-12-14 07:41:59 51°13.659 2°55.959 4.3 20 -0.8 102960 33
2010-12-14 07:42:05 51°13.659 2°55.959 4.5 253 -0.8 102960 33
2010-12-14 07:42:10 51°13.659 2°55.959 5.3 256 -0.8 102960 33
2010-12-14 07:42:15 51°13.659 2°55.959 3.8 247 -0.8 102960 33
2010-12-14 07:42:19 51°13.659 2°55.959 5.1 248 -0.8 102960 31
2010-12-14 07:42:25 51°13.659 2°55.96 5.7 246 -0.8 102960 31
2010-12-14 07:42:30 51°13.66 2°55.96 4.6 19 -0.8 102960 31
2010-12-14 07:42:35 51°13.66 2°55.96 5.3 247 -0.8 102960 31
2010-12-14 07:42:40 51°13.66 2°55.96 5.5 18 -0.8 102960 33
2010-12-14 07:42:45 51°13.66 2°55.96 4.4 250 -0.8 102960 33
2010-12-14 07:42:50 51°13.66 2°55.96 4.2 26 -0.8 102970 33
2010-12-14 07:42:55 51°13.66 2°55.96 4.6 251 -0.8 102970 33
2010-12-14 07:43:00 51°13.66 2°55.96 4.4 245 -0.8 102960 31
2010-12-14 07:43:05 51°13.66 2°55.96 5.3 250 -0.8 102960 31
2010-12-14 07:43:10 51°13.66 2°55.96 4.1 18 -0.8 102960 33
2010-12-14 07:43:15 51°13.66 2°55.96 3.3 247 -0.8 102960 33
2010-12-14 07:43:20 51°13.66 2°55.96 2.9 24 -0.8 102970 32
2010-12-14 07:43:25 51°13.66 2°55.96 0.3 248 -0.8 102970 32
2010-12-14 07:43:30 51°13.66 2°55.96 0.2 22 -0.8 102970 31
2010-12-14 07:43:34 51°13.66 2°55.96 0.2 255 -0.8 102970 31
2010-12-14 07:43:40 51°13.66 2°55.96 2.7 22 -0.8 102970 31
2010-12-14 07:43:45 51°13.66 2°55.96 1.8 248 -0.8 102970 31
2010-12-14 07:43:50 51°13.66 2°55.96 3.6 22 -0.8 102960 33
2010-12-14 07:43:54 51°13.66 2°55.96 0.2 243 -0.8 102960 33
2010-12-14 07:43:59 51°13.66 2°55.96 0.2 251 -0.8 102960 31
2010-12-14 07:44:05 51°13.66 2°55.961 0.1 246 -0.8 102960 31
2010-12-14 07:44:10 51°13.66 2°55.961 0.1 247 -0.8 102970 30
2010-12-14 07:44:15 51°13.66 2°55.96 2.7 312 -0.8 102970 30
2010-12-14 07:44:20 51°13.66 2°55.96 3.8 246 -0.8 102970 32
2010-12-14 07:44:25 51°13.66 2°55.96 1.8 304 -0.8 102970 32
2010-12-14 07:44:30 51°13.66 2°55.96 2.3 255 -0.8 102970 32
2010-12-14 07:44:34 51°13.66 2°55.96 4 261 -0.8 102970 32
2010-12-14 07:44:40 51°13.661 2°55.96 3.8 24 -0.8 102970 32
2010-12-14 07:44:45 51°13.661 2°55.96 1.8 37 -0.8 102970 32
2010-12-14 07:44:50 51°13.661 2°55.96 0.3 247 -0.8 102970 31
2010-12-14 07:44:55 51°13.661 2°55.96 0.3 33 -0.8 102970 31
2010-12-14 07:45:00 51°13.661 2°55.96 2.6 27 -0.8 102970 32
2010-12-14 07:45:05 51°13.661 2°55.96 4.2 242 -0.8 102970 32
2010-12-14 07:45:10 51°13.661 2°55.96 4.8 21 -0.8 102970 33
2010-12-14 07:45:15 51°13.661 2°55.96 5.6 239 -0.8 102970 33
2010-12-14 07:45:20 51°13.661 2°55.96 5.5 17 -0.8 102960 31
2010-12-14 07:45:25 51°13.661 2°55.96 5.2 252 -0.8 102960 31
2010-12-14 07:45:30 51°13.661 2°55.96 4.2 21 -0.8 102970 31
2010-12-14 07:45:34 51°13.661 2°55.96 3.7 305 -0.8 102970 31
2010-12-14 07:45:40 51°13.661 2°55.96 3.6 19 -0.8 102960 31
2010-12-14 07:45:45 51°13.661 2°55.96 3.7 244 -0.8 102960 31
2010-12-14 07:45:50 51°13.661 2°55.96 3.7 254 -0.8 102960 33
2010-12-14 07:45:55 51°13.661 2°55.96 2.1 309 -0.8 102960 33
2010-12-14 07:46:00 51°13.661 2°55.96 1.1 21 -0.8 102970 31
2010-12-14 07:46:05 51°13.661 2°55.96 3.6 255 -0.8 102970 31
2010-12-14 07:46:10 51°13.661 2°55.96 3.7 18 -0.8 102960 31
2010-12-14 07:46:14 51°13.661 2°55.96 2.4 248 -0.8 102960 31
2010-12-14 07:46:19 51°13.661 2°55.96 2.6 246 -0.8 102970 33
2010-12-14 07:46:25 51°13.662 2°55.96 2.2 241 -0.8 102970 33
2010-12-14 07:46:30 51°13.662 2°55.96 1.3 249 -0.8 102970 32
2010-12-14 07:46:35 51°13.662 2°55.96 2.8 244 -0.8 102970 32
2010-12-14 07:46:39 51°13.662 2°55.96 2.3 24 -0.8 102970 31
2010-12-14 07:46:45 51°13.662 2°55.96 3.1 245 -0.8 102970 31
2010-12-14 07:46:50 51°13.662 2°55.96 1.6 26 -0.8 102980 30
2010-12-14 07:46:55 51°13.662 2°55.96 1.3 245 -0.8 102980 30
2010-12-14 07:47:00 51°13.662 2°55.96 1.4 19 -0.8 102970 33
2010-12-14 07:47:05 51°13.662 2°55.96 1.3 306 -0.8 102970 33
2010-12-14 07:47:10 51°13.662 2°55.96 1.4 17 -0.8 102970 31
2010-12-14 07:47:15 51°13.662 2°55.96 0.1 31 -0.8 102970 31
2010-12-14 07:47:19 51°13.662 2°55.96 1 252 -0.8 102970 34
2010-12-14 07:47:25 51°13.662 2°55.961 4.5 243 -0.8 102970 34
2010-12-14 07:47:30 51°13.662 2°55.961 4.7 17 -0.8 102970 32
2010-12-14 07:47:35 51°13.662 2°55.961 1.5 241 -0.8 102970 32
2010-12-14 07:47:40 51°13.662 2°55.961 2.8 17 -0.8 102970 33
2010-12-14 07:47:45 51°13.662 2°55.961 3.5 249 -0.8 102970 33
2010-12-14 07:47:50 51°13.662 2°55.961 4.3 20 -0.8 102970 31
2010-12-14 07:47:55 51°13.662 2°55.961 4.3 304 -0.8 102970 31
2010-12-14 07:48:00 51°13.662 2°55.961 3.8 21 -0.8 102960 34
2010-12-14 07:48:05 51°13.663 2°55.961 5.2 256 -0.8 102960 34
2010-12-14 07:48:10 51°13.663 2°55.961 4.6 249 -0.8 102970 32
2010-12-14 07:48:14 51°13.663 2°55.961 5.6 252 -0.8 102970 32
2010-12-14 07:48:19 51°13.663 2°55.961 4.1 246 -0.8 102970 33
2010-12-14 07:48:25 51°13.663 2°55.961 4.1 311 -0.8 102970 33
2010-12-14 07:48:30 51°13.663 2°55.961 3.4 249 -0.8 102970 31
2010-12-14 07:48:35 51°13.663 2°55.961 4.3 304 -0.8 102970 31
2010-12-14 07:48:39 51°13.663 2°55.961 2.9 253 -0.8 102970 31
2010-12-14 07:48:45 51°13.663 2°55.961 2.6 303 -0.8 102970 31
2010-12-14 07:48:50 51°13.663 2°55.961 3.2 24 -0.8 102970 33
2010-12-14 07:48:55 51°13.663 2°55.961 3 308 -0.8 102970 33
2010-12-14 07:49:00 51°13.663 2°55.961 3.2 20 -0.8 102970 31
2010-12-14 07:49:05 51°13.663 2°55.961 3.7 306 -0.8 102970 31
2010-12-14 07:49:10 51°13.663 2°55.961 3.7 246 -0.8 102970 34
2010-12-14 07:49:15 51°13.663 2°55.961 0.2 307 -0.8 102970 34
2010-12-14 07:49:20 51°13.663 2°55.961 0.1 22 -0.8 102970 31
2010-12-14 07:49:25 51°13.663 2°55.961 -999 307 -0.8 102970 31
2010-12-14 07:49:30 51°13.663 2°55.961 -999 22 -0.8 102970 31
2010-12-14 07:49:35 51°13.663 2°55.961 -999 254 -0.8 102970 31
2010-12-14 07:49:40 51°13.663 2°55.961 -999 256 -0.8 102970 32
2010-12-14 07:49:45 51°13.663 2°55.961 -999 308 -0.8 102970 32
2010-12-14 07:49:50 51°13.663 2°55.961 -999 255 -0.8 102970 32
2010-12-14 07:49:55 51°13.663 2°55.961 5.4 306 -0.8 102970 32
2010-12-14 07:50:00 51°13.663 2°55.961 3.6 18 -0.8 102970 32
2010-12-14 07:50:05 51°13.663 2°55.961 4 307 -0.8 102970 32
2010-12-14 07:50:10 51°13.663 2°55.961 5 245 -0.8 102970 32
2010-12-14 07:50:14 51°13.663 2°55.961 7.9 311 -0.8 102970 32
2010-12-14 07:50:20 51°13.663 2°55.961 6.5 254 -0.8 102970 34
2010-12-14 07:50:25 51°13.663 2°55.961 5.6 304 -0.8 102970 34
2010-12-14 07:50:30 51°13.663 2°55.961 3.4 246 -0.8 102970 33
2010-12-14 07:50:35 51°13.663 2°55.961 3.9 310 -0.8 102970 33
2010-12-14 07:50:39 51°13.663 2°55.961 4.6 253 -0.8 102980 31
2010-12-14 07:50:45 51°13.663 2°55.961 4.6 245 -0.8 102980 31
2010-12-14 07:50:50 51°13.663 2°55.961 4.1 21 -0.8 102980 31
2010-12-14 07:50:55 51°13.663 2°55.961 5.1 306 -0.8 102980 31
2010-12-14 07:51:00 51°13.663 2°55.961 5.1 255 -0.8 102980 31
2010-12-14 07:51:05 51°13.663 2°55.961 5.3 306 -0.8 102980 31
2010-12-14 07:51:10 51°13.663 2°55.961 4.5 18 -0.8 102970 33
2010-12-14 07:51:15 51°13.663 2°55.961 3.1 310 -0.8 102970 33
2010-12-14 07:51:20 51°13.663 2°55.961 3.3 251 -0.8 102970 33
2010-12-14 07:51:25 51°13.663 2°55.961 5.2 309 -0.8 102970 33
2010-12-14 07:51:30 51°13.663 2°55.961 2.1 258 -0.8 102970 31
2010-12-14 07:51:35 51°13.663 2°55.961 4.9 305 -0.8 102970 31
2010-12-14 07:51:40 51°13.663 2°55.961 3.8 247 -0.8 102970 33
2010-12-14 07:51:45 51°13.663 2°55.961 3.2 305 -0.8 102970 33
2010-12-14 07:51:50 51°13.663 2°55.961 4.1 251 -0.8 102980 34
2010-12-14 07:51:55 51°13.663 2°55.961 3.1 306 -0.8 102980 34
2010-12-14 07:52:00 51°13.663 2°55.961 0.8 248 -0.8 102970 31
2010-12-14 07:52:05 51°13.663 2°55.961 0.1 307 -0.8 102970 31
2010-12-14 07:52:10 51°13.663 2°55.96 0.1 250 -0.8 102970 32
2010-12-14 07:52:14 51°13.663 2°55.96 -999 307 -0.8 102970 32
2010-12-14 07:52:20 51°13.663 2°55.96 -999 248 -0.8 102970 32
2010-12-14 07:52:25 51°13.663 2°55.96 -999 307 -0.8 102970 32
2010-12-14 07:52:30 51°13.663 2°55.96 -999 22 -0.8 102970 32
2010-12-14 07:52:35 51°13.663 2°55.96 -999 308 -0.8 102970 32
2010-12-14 07:52:39 51°13.663 2°55.96 -999 22 -0.8 102970 32
2010-12-14 07:52:45 51°13.663 2°55.96 -999 307 -0.8 102970 32
2010-12-14 07:52:50 51°13.663 2°55.96 -999 22 -0.7 102970 32
2010-12-14 07:52:55 51°13.663 2°55.96 -999 307 -0.7 102970 32
2010-12-14 07:53:00 51°13.663 2°55.96 -999 22 -0.8 102980 32
2010-12-14 07:53:06 51°13.663 2°55.96 -999 242 -0.8 102980 32
2010-12-14 07:53:11 51°13.663 2°55.96 -999 22 -0.8 102980 32
2010-12-14 07:53:17 51°13.663 2°55.96 -999 307 -0.8 102980 32
2010-12-14 07:53:22 51°13.662 2°55.96 -999 261 -0.8 102970 32
2010-12-14 07:53:28 51°13.662 2°55.96 -999 308 -0.8 102970 32
2010-12-14 07:53:33 51°13.662 2°55.96 -999 249 -0.8 102970 32
2010-12-14 07:53:38 51°13.662 2°55.96 -999 307 -0.8 102970 32
2010-12-14 07:53:43 51°13.662 2°55.96 -999 252 -0.8 102980 32
2010-12-14 07:53:48 51°13.662 2°55.96 -999 307 -0.8 102980 32
2010-12-14 07:53:53 51°13.662 2°55.96 -999 251 -0.8 102980 32
2010-12-14 07:53:58 51°13.662 2°55.96 0.1 308 -0.8 102980 32
2010-12-14 07:54:03 51°13.662 2°55.96 0.1 22 -0.8 102980 32
2010-12-14 07:54:08 51°13.662 2°55.96 3.9 308 -0.8 102980 32
2010-12-14 07:54:13 51°13.662 2°55.959 2.8 248 -0.8 102980 32
2010-12-14 07:54:18 51°13.662 2°55.96 4.7 306 -0.8 102980 32
2010-12-14 07:54:23 51°13.662 2°55.96 3 18 -0.8 102980 32
2010-12-14 07:54:28 51°13.662 2°55.96 4.5 309 -0.8 102980 32
2010-12-14 07:54:33 51°13.662 2°55.96 5.9 23 -0.8 102980 34
2010-12-14 07:54:38 51°13.662 2°55.96 4.4 312 -0.8 102980 34
2010-12-14 07:54:43 51°13.662 2°55.96 4.2 249 -0.8 102980 31
2010-12-14 07:54:49 51°13.662 2°55.96 3.7 309 -0.8 102980 31
2010-12-14 07:54:53 51°13.662 2°55.96 4.2 20 -0.8 102970 32
2010-12-14 07:54:58 51°13.662 2°55.96 3 287 -0.8 102970 32
2010-12-14 07:55:03 51°13.662 2°55.961 3 24 -0.8 102990 33
2010-12-14 07:55:08 51°13.662 2°55.961 3.6 309 -0.8 102990 33
2010-12-14 07:55:13 51°13.662 2°55.961 3.2 27 -0.8 102980 30
2010-12-14 07:55:18 51°13.662 2°55.961 3.9 304 -0.8 102980 30
2010-12-14 07:55:22 51°13.662 2°55.961 4.8 20 -0.8 102980 33
2010-12-14 07:55:27 51°13.661 2°55.961 3.9 304 -0.8 102980 33
2010-12-14 07:55:32 51°13.661 2°55.961 4.5 20 -0.7 102980 33
2010-12-14 07:55:38 51°13.661 2°55.961 4.3 309 -0.7 102980 33
2010-12-14 07:55:42 51°13.661 2°55.96 4.9 24 -0.8 102990 33
2010-12-14 07:55:47 51°13.661 2°55.96 3.9 304 -0.8 102990 33
2010-12-14 07:55:52 51°13.661 2°55.96 3.4 21 -0.8 102990 33
2010-12-14 07:55:57 51°13.66 2°55.96 3.6 311 -0.8 102990 33
2010-12-14 07:56:02 51°13.66 2°55.96 3.6 23 -0.8 102990 33
2010-12-14 07:56:07 51°13.66 2°55.96 1.6 308 -0.8 102990 33
2010-12-14 07:56:12 51°13.66 2°55.961 3.6 25 -0.8 102990 31
2010-12-14 07:56:17 51°13.66 2°55.96 0.2 307 -0.8 102990 31
2010-12-14 07:56:22 51°13.66 2°55.96 0.1 22 -0.7 102990 31
2010-12-14 07:56:26 51°13.661 2°55.958 -999 307 -0.7 102990 31
2010-12-14 07:56:31 51°13.661 2°55.955 -999 22 -0.7 102990 31
2010-12-14 07:56:36 51°13.662 2°55.951 -999 307 -0.7 102990 31
2010-12-14 07:56:42 51°13.663 2°55.944 -999 249 -0.7 102980 32
2010-12-14 07:56:47 51°13.664 2°55.937 -999 309 -0.7 102980 32
2010-12-14 07:56:53 51°13.666 2°55.928 -999 26 -0.7 102990 32
2010-12-14 07:56:58 51°13.668 2°55.92 -999 288 -0.7 102990 32
2010-12-14 07:57:04 51°13.67 2°55.909 -999 20 -0.7 102980 32
2010-12-14 07:57:09 51°13.672 2°55.899 -999 308 -0.7 102980 32
2010-12-14 07:57:14 51°13.674 2°55.889 -999 252 -0.7 102980 32
2010-12-14 07:57:18 51°13.675 2°55.88 -999 307 -0.7 102980 32
2010-12-14 07:57:23 51°13.677 2°55.869 -999 257 -0.7 102990 32
2010-12-14 07:57:29 51°13.68 2°55.856 -999 307 -0.7 102990 32
2010-12-14 07:57:34 51°13.682 2°55.846 -999 249 -0.7 102990 32
2010-12-14 07:57:38 51°13.683 2°55.838 -999 57 -0.7 102990 32
2010-12-14 07:57:43 51°13.685 2°55.828 -999 256 -0.7 102990 32
2010-12-14 07:57:49 51°13.687 2°55.816 -999 264 -0.7 102990 32
2010-12-14 07:57:54 51°13.688 2°55.807 -999 262 -0.7 102990 32
2010-12-14 07:57:58 51°13.689 2°55.8 -999 284 -0.7 102990 32
2010-12-14 07:58:03 51°13.69 2°55.79 -999 262 -0.7 102980 32
2010-12-14 07:58:08 51°13.691 2°55.781 -999 307 -0.7 102980 32
2010-12-14 07:58:14 51°13.693 2°55.771 -999 258 -0.7 102980 32
2010-12-14 07:58:18 51°13.693 2°55.764 -999 307 -0.7 102980 32
2010-12-14 07:58:23 51°13.694 2°55.756 -999 250 -0.7 102980 32
2010-12-14 07:58:28 51°13.695 2°55.748 -999 307 -0.7 102980 32
2010-12-14 07:58:34 51°13.696 2°55.742 -999 251 -0.7 102980 32
2010-12-14 07:58:38 51°13.696 2°55.74 -999 244 -0.7 102980 32
2010-12-14 07:58:43 51°13.696 2°55.738 -999 250 -0.7 102980 32
2010-12-14 07:58:48 51°13.697 2°55.738 -999 307 -0.7 102980 32
2010-12-14 07:58:53 51°13.697 2°55.738 -999 22 -0.6 102980 32
2010-12-14 07:58:58 51°13.698 2°55.739 -999 284 -0.6 102980 32
2010-12-14 07:59:03 51°13.698 2°55.74 -999 315 -0.6 102980 32
2010-12-14 07:59:08 51°13.699 2°55.742 -999 330 -0.6 102980 32
2010-12-14 07:59:13 51°13.7 2°55.745 -999 323 -0.6 102980 32
2010-12-14 07:59:18 51°13.702 2°55.748 -999 323 -0.6 102980 32
2010-12-14 07:59:23 51°13.703 2°55.75 -999 327 -0.6 102980 32
2010-12-14 07:59:28 51°13.705 2°55.752 -999 330 -0.6 102980 32
2010-12-14 07:59:33 51°13.705 2°55.752 -999 329 -0.6 102980 32
2010-12-14 07:59:38 51°13.705 2°55.752 -999 334 -0.6 102980 32
2010-12-14 07:59:42 51°13.705 2°55.751 -999 342 -0.6 102980 32
2010-12-14 07:59:48 51°13.703 2°55.75 -999 338 -0.6 102980 32
2010-12-14 07:59:52 51°13.702 2°55.748 -999 340 -0.6 102980 32
2010-12-14 07:59:58 51°13.699 2°55.745 -999 353 -0.6 102980 32
2010-12-14 08:00:03 51°13.696 2°55.742 -999 343 -0.6 102980 32
2010-12-14 08:00:08 51°13.692 2°55.739 -999 351 -0.6 102980 32
2010-12-14 08:00:13 51°13.69 2°55.736 -999 352 -0.6 102980 31
2010-12-14 08:00:19 51°13.687 2°55.734 -999 338 -0.6 102980 31
2010-12-14 08:00:24 51°13.685 2°55.733 -999 344 -0.6 102990 32
2010-12-14 08:00:29 51°13.684 2°55.732 -999 354 -0.6 102990 32
2010-12-14 08:00:34 51°13.684 2°55.731 -999 358 -0.6 102980 32
2010-12-14 08:00:39 51°13.684 2°55.731 -999 357 -0.6 102980 32
2010-12-14 08:00:44 51°13.686 2°55.731 -999 354 -0.6 102980 32
2010-12-14 08:00:49 51°13.687 2°55.73 -999 360 -0.6 102980 32
2010-12-14 08:00:53 51°13.689 2°55.729 -999 4 -0.6 102980 32
2010-12-14 08:00:59 51°13.694 2°55.727 -999 3 -0.6 102980 32
2010-12-14 08:01:04 51°13.698 2°55.725 -999 1 -0.6 102980 32
2010-12-14 08:01:09 51°13.704 2°55.721 -999 1 -0.6 102980 32
2010-12-14 08:01:14 51°13.71 2°55.717 -999 350 -0.6 102980 32
2010-12-14 08:01:19 51°13.718 2°55.711 -999 346 -0.6 102980 32
2010-12-14 08:01:23 51°13.724 2°55.707 -999 354 -0.5 102970 32
2010-12-14 08:01:29 51°13.734 2°55.7 -999 347 -0.5 102970 32
2010-12-14 08:01:33 51°13.741 2°55.694 -999 358 -0.5 102980 32
2010-12-14 08:01:39 51°13.753 2°55.687 -999 346 -0.5 102980 32
2010-12-14 08:01:43 51°13.761 2°55.681 -999 346 -0.5 102980 32
2010-12-14 08:01:47 51°13.77 2°55.675 -999 345 -0.5 102980 32
2010-12-14 08:01:53 51°13.783 2°55.665 -999 355 -0.5 102980 32
2010-12-14 08:01:58 51°13.795 2°55.657 -999 349 -0.5 102980 32
2010-12-14 08:02:03 51°13.806 2°55.649 -999 349 -0.5 102980 32
2010-12-14 08:02:07 51°13.815 2°55.642 -999 353 -0.5 102980 32
2010-12-14 08:02:12 51°13.827 2°55.633 -999 352 -0.5 102980 32
2010-12-14 08:02:17 51°13.838 2°55.623 -999 349 -0.5 102980 32
2010-12-14 08:02:22 51°13.849 2°55.615 -999 347 -0.5 102980 32
2010-12-14 08:02:27 51°13.861 2°55.605 -999 350 -0.5 102980 32
2010-12-14 08:02:29 51°13.866 2°55.602 -999 350 -0.4 102980 32
2010-12-14 08:02:37 51°13.886 2°55.588 -999 355 -0.4 102980 32
2010-12-14 08:02:41 51°13.896 2°55.581 -999 353 -0.4 102980 32
2010-12-14 08:02:46 51°13.909 2°55.572 -999 348 -0.4 102980 32
2010-12-14 08:02:51 51°13.921 2°55.563 -999 352 -0.4 102970 31
2010-12-14 08:02:56 51°13.934 2°55.554 -999 348 -0.4 102970 31
2010-12-14 08:03:01 51°13.947 2°55.545 -999 347 -0.4 102970 32
2010-12-14 08:03:06 51°13.959 2°55.535 -999 350 -0.4 102970 32
2010-12-14 08:03:11 51°13.972 2°55.526 11.6 350 -0.4 102980 32
2010-12-14 08:03:14 51°13.98 2°55.521 9.4 352 -0.4 102980 32
2010-12-14 08:03:20 51°13.993 2°55.51 8.5 347 -0.3 102970 32
2010-12-14 08:03:26 51°14.009 2°55.499 8 344 -0.3 102970 32
2010-12-14 08:03:30 51°14.02 2°55.493 10.1 352 -0.3 102970 31
2010-12-14 08:03:35 51°14.032 2°55.484 11.2 347 -0.3 102970 31
2010-12-14 08:03:41 51°14.048 2°55.472 12.3 353 -0.3 102960 33
2010-12-14 08:03:46 51°14.061 2°55.463 10.2 352 -0.3 102960 33
2010-12-14 08:03:51 51°14.074 2°55.453 9.6 352 -0.3 102970 33
2010-12-14 08:03:56 51°14.088 2°55.444 7 352 -0.3 102970 33
2010-12-14 08:04:01 51°14.101 2°55.434 8 358 -0.3 102970 31
2010-12-14 08:04:06 51°14.114 2°55.424 7.9 353 -0.3 102970 31
2010-12-14 08:04:11 51°14.128 2°55.414 8.3 353 -0.3 102970 31
2010-12-14 08:04:17 51°14.144 2°55.402 10.4 353 -0.3 102970 31
2010-12-14 08:04:23 51°14.16 2°55.389 8 354 -0.3 102970 32
2010-12-14 08:04:28 51°14.174 2°55.379 9.2 355 -0.3 102970 32
2010-12-14 08:04:33 51°14.187 2°55.368 8.8 356 -0.2 102970 32
2010-12-14 08:04:39 51°14.203 2°55.354 10 354 -0.2 102970 32
2010-12-14 08:04:43 51°14.214 2°55.344 10.6 357 -0.2 102980 33
2010-12-14 08:04:49 51°14.23 2°55.328 7.6 355 -0.2 102980 33
2010-12-14 08:04:54 51°14.243 2°55.315 9.5 2 -0.2 102980 33
2010-12-14 08:04:59 51°14.256 2°55.301 7.8 1 -0.2 102980 33
2010-12-14 08:05:04 51°14.27 2°55.286 13 2 -0.2 102970 31
2010-12-14 08:05:09 51°14.283 2°55.272 10.7 360 -0.2 102970 31
2010-12-14 08:05:14 51°14.297 2°55.258 11.8 3 -0.2 102970 33
2010-12-14 08:05:19 51°14.311 2°55.244 13.9 2 -0.2 102970 33
2010-12-14 08:05:24 51°14.325 2°55.229 12.1 2 -0.1 102960 33
2010-12-14 08:05:29 51°14.338 2°55.214 10.6 -999 -0.1 102960 33
2010-12-14 08:05:33 51°14.349 2°55.202 9.8 5 -0.1 102950 31
2010-12-14 08:05:39 51°14.365 2°55.184 9.1 3 -0.1 102950 31
2010-12-14 08:05:43 51°14.377 2°55.172 9.6 360 -0.1 102960 31
2010-12-14 08:05:48 51°14.391 2°55.157 11.2 1 -0.1 102960 31
2010-12-14 08:05:53 51°14.405 2°55.142 13.3 1 -999 102980 31
2010-12-14 08:05:58 51°14.419 2°55.127 13.6 3 -999 102980 31
2010-12-14 08:06:03 51°14.433 2°55.113 9.9 1 -999 102950 33
2010-12-14 08:06:07 51°14.445 2°55.101 11.3 3 -999 102950 33
2010-12-14 08:06:12 51°14.459 2°55.086 10.6 5 -999 102950 32
2010-12-14 08:06:17 51°14.474 2°55.071 7.4 358 -999 102950 32
2010-12-14 08:06:23 51°14.491 2°55.053 9.6 359 -999 102960 33
2010-12-14 08:06:28 51°14.505 2°55.038 11.3 359 -999 102960 33
2010-12-14 08:06:33 51°14.519 2°55.023 11.1 359 -999 102950 32
2010-12-14 08:06:38 51°14.532 2°55.006 8.4 1 -999 102950 32
2010-12-14 08:06:43 51°14.546 2°54.99 12.8 1 0.1 102950 33
2010-12-14 08:06:47 51°14.557 2°54.978 13 358 0.1 102950 33
2010-12-14 08:06:52 51°14.57 2°54.963 9.3 -999 0.1 102960 32
2010-12-14 08:06:57 51°14.584 2°54.948 12.9 357 0.1 102960 32
2010-12-14 08:07:02 51°14.597 2°54.931 12.6 -999 0.1 102950 33
2010-12-14 08:07:07 51°14.61 2°54.915 12.8 356 0.1 102950 33
2010-12-14 08:07:11 51°14.62 2°54.901 9.1 359 0.1 102940 33
2010-12-14 08:07:17 51°14.636 2°54.883 11 359 0.1 102940 33
2010-12-14 08:07:21 51°14.646 2°54.87 11.1 359 0.2 102960 33
2010-12-14 08:07:26 51°14.659 2°54.854 9.3 359 0.2 102960 33
2010-12-14 08:07:31 51°14.673 2°54.839 12.6 358 0.2 102930 32
2010-12-14 08:07:36 51°14.687 2°54.823 11.6 356 0.2 102930 32
2010-12-14 08:07:41 51°14.702 2°54.808 12.7 1 0.2 102970 33
2010-12-14 08:07:46 51°14.716 2°54.791 14.7 358 0.2 102970 33
2010-12-14 08:07:51 51°14.73 2°54.774 9.6 358 0.2 102940 33
2010-12-14 08:07:55 51°14.741 2°54.762 12.3 359 0.2 102940 33
2010-12-14 08:08:00 51°14.755 2°54.745 9.6 359 0.2 102950 33
2010-12-14 08:08:05 51°14.77 2°54.729 12.1 356 0.2 102950 33
2010-12-14 08:08:10 51°14.785 2°54.715 14.8 357 0.2 102950 31
2010-12-14 08:08:15 51°14.801 2°54.702 15.2 358 0.2 102950 31
2010-12-14 08:08:20 51°14.817 2°54.689 11.7 358 0.3 102960 34
2010-12-14 08:08:26 51°14.836 2°54.673 14.6 358 0.3 102960 34
2010-12-14 08:08:30 51°14.849 2°54.663 14.5 356 0.3 102950 33
2010-12-14 08:08:35 51°14.865 2°54.652 13.9 356 0.3 102950 33
2010-12-14 08:08:40 51°14.881 2°54.641 10.9 355 0.3 102930 32
2010-12-14 08:08:45 51°14.897 2°54.629 10.2 354 0.3 102930 32
2010-12-14 08:08:50 51°14.913 2°54.616 11.1 356 0.3 102940 34
2010-12-14 08:08:55 51°14.928 2°54.605 15.9 355 0.3 102940 34
2010-12-14 08:08:59 51°14.941 2°54.595 15.1 354 0.3 102960 32
2010-12-14 08:09:05 51°14.961 2°54.582 14.1 354 0.3 102960 32
2010-12-14 08:09:10 51°14.977 2°54.574 15.7 350 0.3 102940 32
2010-12-14 08:09:15 51°14.994 2°54.567 16.1 349 0.3 102940 32
2010-12-14 08:09:19 51°15.008 2°54.563 12.7 348 0.3 102930 34
2010-12-14 08:09:25 51°15.029 2°54.556 14.5 347 0.3 102930 34
2010-12-14 08:09:30 51°15.046 2°54.55 16.8 348 0.3 102960 33
2010-12-14 08:09:35 51°15.063 2°54.544 13.5 349 0.3 102960 33
2010-12-14 08:09:39 51°15.076 2°54.54 13.8 349 0.3 102950 32
2010-12-14 08:09:45 51°15.097 2°54.532 12.1 349 0.3 102950 32
2010-12-14 08:09:50 51°15.114 2°54.526 19 352 0.3 102930 34
2010-12-14 08:09:55 51°15.131 2°54.519 7.3 352 0.3 102930 34
2010-12-14 08:09:59 51°15.145 2°54.514 15.1 353 0.3 102950 33
2010-12-14 08:10:05 51°15.165 2°54.505 11.1 353 0.3 102950 33
2010-12-14 08:10:10 51°15.182 2°54.498 15.3 350 0.3 102930 32
2010-12-14 08:10:15 51°15.199 2°54.49 16 349 0.3 102930 32
2010-12-14 08:10:19 51°15.213 2°54.484 16 350 0.3 102940 33
2010-12-14 08:10:25 51°15.233 2°54.474 15.9 352 0.3 102940 33
2010-12-14 08:10:30 51°15.25 2°54.465 6.5 353 0.4 102940 33
2010-12-14 08:10:35 51°15.267 2°54.456 15.3 351 0.4 102940 33
2010-12-14 08:10:40 51°15.283 2°54.446 10.9 353 0.4 102930 34
2010-12-14 08:10:45 51°15.299 2°54.436 16.1 351 0.4 102930 34
2010-12-14 08:10:50 51°15.316 2°54.426 12.6 352 0.4 102930 32
2010-12-14 08:10:55 51°15.332 2°54.416 16.6 353 0.4 102930 32
2010-12-14 08:10:59 51°15.345 2°54.408 10.7 352 0.4 102970 32
2010-12-14 08:11:05 51°15.365 2°54.395 11.5 352 0.4 102970 32
2010-12-14 08:11:11 51°15.385 2°54.383 15.7 353 0.3 102930 32
2010-12-14 08:11:15 51°15.398 2°54.375 7.1 351 0.3 102930 32
2010-12-14 08:11:19 51°15.412 2°54.367 13.2 351 0.3 102920 32
2010-12-14 08:11:25 51°15.432 2°54.355 13.6 352 0.3 102920 32
2010-12-14 08:11:30 51°15.448 2°54.345 6.2 356 0.3 102940 33
2010-12-14 08:11:35 51°15.465 2°54.335 11.7 352 0.3 102940 33
2010-12-14 08:11:39 51°15.478 2°54.326 14.2 354 0.4 102930 33
2010-12-14 08:11:45 51°15.498 2°54.314 16.6 352 0.4 102930 33
2010-12-14 08:11:50 51°15.515 2°54.304 11.9 352 0.4 102930 32
2010-12-14 08:11:55 51°15.532 2°54.294 6.6 353 0.4 102930 32
2010-12-14 08:11:59 51°15.545 2°54.286 16.3 351 0.4 102930 33
2010-12-14 08:12:05 51°15.565 2°54.273 6.1 350 0.4 102930 33
2010-12-14 08:12:10 51°15.582 2°54.263 14.5 351 0.4 102940 33
2010-12-14 08:12:15 51°15.598 2°54.253 15.8 353 0.4 102940 33
2010-12-14 08:12:20 51°15.615 2°54.242 7.4 355 0.4 102920 32
2010-12-14 08:12:25 51°15.631 2°54.23 16.5 354 0.4 102920 32
2010-12-14 08:12:30 51°15.647 2°54.217 15.8 359 0.4 102920 33
2010-12-14 08:12:35 51°15.663 2°54.203 16.3 358 0.4 102920 33
2010-12-14 08:12:39 51°15.675 2°54.192 14.2 356 0.4 102920 32
2010-12-14 08:12:45 51°15.695 2°54.176 13.7 355 0.4 102920 32
2010-12-14 08:12:50 51°15.71 2°54.161 15.3 357 0.4 102930 32
2010-12-14 08:12:55 51°15.725 2°54.146 9.8 356 0.4 102930 32
2010-12-14 08:12:59 51°15.738 2°54.135 6.1 356 0.4 102930 33
2010-12-14 08:13:05 51°15.756 2°54.117 5.7 359 0.4 102930 33
2010-12-14 08:13:10 51°15.772 2°54.102 9.6 358 0.4 102940 33
2010-12-14 08:13:15 51°15.786 2°54.087 15.4 355 0.4 102940 33
2010-12-14 08:13:21 51°15.803 2°54.07 13.6 358 0.4 102940 33
2010-12-14 08:13:27 51°15.821 2°54.052 6.6 -999 0.4 102940 33
2010-12-14 08:13:31 51°15.832 2°54.041 15 -999 0.4 102940 31
2010-12-14 08:13:36 51°15.846 2°54.026 10 359 0.4 102940 31
2010-12-14 08:13:41 51°15.861 2°54.012 5.4 359 0.5 102940 34
2010-12-14 08:13:46 51°15.877 2°53.997 13.4 1 0.5 102940 34
2010-12-14 08:13:51 51°15.892 2°53.982 5.8 359 0.5 102950 34
2010-12-14 08:13:56 51°15.907 2°53.967 9.7 359 0.5 102950 34
2010-12-14 08:14:00 51°15.919 2°53.955 13.7 360 0.5 102950 34
2010-12-14 08:14:06 51°15.938 2°53.937 12.2 3 0.5 102950 34
2010-12-14 08:14:10 51°15.95 2°53.925 9.2 359 0.5 102950 34
2010-12-14 08:14:15 51°15.965 2°53.91 5.3 358 0.5 102950 34
2010-12-14 08:14:19 51°15.977 2°53.899 14.7 359 0.5 102940 34
2010-12-14 08:14:25 51°15.996 2°53.881 10.6 2 0.5 102940 34
2010-12-14 08:14:30 51°16.011 2°53.866 12.7 359 0.5 102950 34
2010-12-14 08:14:35 51°16.027 2°53.852 11.9 359 0.5 102950 34
2010-12-14 08:14:39 51°16.04 2°53.84 14.5 360 0.5 102930 34
2010-12-14 08:14:45 51°16.058 2°53.823 10 358 0.5 102930 34
2010-12-14 08:14:50 51°16.073 2°53.808 15.5 357 0.4 102950 32
2010-12-14 08:14:55 51°16.089 2°53.793 16.2 1 0.4 102950 32
2010-12-14 08:14:59 51°16.101 2°53.781 15.4 359 0.4 102940 32
2010-12-14 08:15:05 51°16.119 2°53.761 10.7 358 0.4 102940 32
2010-12-14 08:15:10 51°16.134 2°53.746 5.6 1 0.4 102940 33
2010-12-14 08:15:15 51°16.148 2°53.729 6.5 360 0.4 102940 33
2010-12-14 08:15:19 51°16.16 2°53.717 8.8 359 0.4 102950 33
2010-12-14 08:15:25 51°16.177 2°53.697 14.3 1 0.4 102950 33
2010-12-14 08:15:30 51°16.191 2°53.682 5.8 360 0.4 102950 33
2010-12-14 08:15:35 51°16.205 2°53.665 14.7 4 0.4 102950 33
2010-12-14 08:15:39 51°16.216 2°53.652 5 3 0.4 102950 34
2010-12-14 08:15:45 51°16.233 2°53.632 5.2 1 0.4 102950 34
2010-12-14 08:15:50 51°16.247 2°53.616 9.3 2 0.3 102940 34
2010-12-14 08:15:55 51°16.262 2°53.6 8.1 2 0.3 102940 34
2010-12-14 08:16:00 51°16.276 2°53.583 11.8 1 0.3 102950 32
2010-12-14 08:16:05 51°16.29 2°53.567 5.7 360 0.3 102950 32
2010-12-14 08:16:11 51°16.307 2°53.547 9.6 2 0.4 102940 32
2010-12-14 08:16:15 51°16.318 2°53.534 14.5 1 0.4 102940 32
2010-12-14 08:16:19 51°16.33 2°53.52 8.3 2 0.4 102960 34
2010-12-14 08:16:25 51°16.347 2°53.5 13.2 3 0.4 102960 34
2010-12-14 08:16:30 51°16.362 2°53.482 14.4 2 0.4 102950 34
2010-12-14 08:16:35 51°16.376 2°53.466 13.3 2 0.4 102950 34
2010-12-14 08:16:39 51°16.387 2°53.452 13.4 1 0.4 102950 34
2010-12-14 08:16:45 51°16.404 2°53.432 13.7 2 0.4 102950 34
2010-12-14 08:16:50 51°16.419 2°53.415 9.7 5 0.4 102960 33
2010-12-14 08:16:55 51°16.434 2°53.399 13.1 3 0.4 102960 33
2010-12-14 08:16:59 51°16.446 2°53.385 5.4 4 0.4 102930 34
2010-12-14 08:17:05 51°16.463 2°53.365 10.8 7 0.4 102930 34
2010-12-14 08:17:10 51°16.478 2°53.348 9 2 0.4 102950 32
2010-12-14 08:17:15 51°16.493 2°53.332 8.4 4 0.4 102950 32
2010-12-14 08:17:19 51°16.505 2°53.319 9.5 5 0.4 102950 34
2010-12-14 08:17:25 51°16.523 2°53.299 11.7 5 0.4 102950 34
2010-12-14 08:17:30 51°16.538 2°53.283 11.9 4 0.4 102950 32
2010-12-14 08:17:35 51°16.553 2°53.266 12.8 1 0.4 102950 32
2010-12-14 08:17:40 51°16.568 2°53.25 10 359 0.4 102950 34
2010-12-14 08:17:45 51°16.583 2°53.234 13.5 4 0.4 102950 34
2010-12-14 08:17:50 51°16.598 2°53.219 5.3 4 0.4 102950 34
2010-12-14 08:17:55 51°16.612 2°53.202 8.7 2 0.4 102950 34
2010-12-14 08:17:59 51°16.624 2°53.19 5.2 4 0.4 102960 32
2010-12-14 08:18:05 51°16.642 2°53.17 12.3 1 0.4 102960 32
2010-12-14 08:18:11 51°16.66 2°53.152 8.2 6 0.3 102970 34
2010-12-14 08:18:15 51°16.671 2°53.138 7.4 3 0.3 102970 34
2010-12-14 08:18:19 51°16.683 2°53.125 8.2 5 0.3 102950 33
2010-12-14 08:18:25 51°16.7 2°53.106 4.6 1 0.3 102950 33
2010-12-14 08:18:30 51°16.716 2°53.09 8.3 358 0.3 102980 32
2010-12-14 08:18:35 51°16.73 2°53.073 9.2 4 0.3 102980 32
2010-12-14 08:18:40 51°16.745 2°53.058 13.8 5 0.3 102960 33
2010-12-14 08:18:45 51°16.758 2°53.04 12.8 359 0.3 102960 33
2010-12-14 08:18:50 51°16.773 2°53.025 8.8 3 0.4 102970 33
2010-12-14 08:18:55 51°16.786 2°53.008 12.3 5 0.4 102970 33
2010-12-14 08:18:59 51°16.798 2°52.995 4.6 4 0.4 102970 33
2010-12-14 08:19:05 51°16.816 2°52.977 4.4 2 0.4 102970 33
2010-12-14 08:19:10 51°16.83 2°52.96 5.8 2 0.4 102950 33
2010-12-14 08:19:15 51°16.844 2°52.945 4.8 4 0.4 102950 33
2010-12-14 08:19:20 51°16.857 2°52.928 5.5 -999 0.4 102960 32
2010-12-14 08:19:25 51°16.871 2°52.913 9.9 2 0.4 102960 32
2010-12-14 08:19:30 51°16.885 2°52.897 9.2 2 0.4 102970 34
2010-12-14 08:19:35 51°16.899 2°52.882 12.3 -999 0.4 102970 34
2010-12-14 08:19:40 51°16.914 2°52.866 12.6 3 0.4 102960 32
2010-12-14 08:19:45 51°16.928 2°52.851 11.1 359 0.4 102960 32
2010-12-14 08:19:50 51°16.943 2°52.835 5 360 0.4 102970 34
2010-12-14 08:19:55 51°16.957 2°52.82 4.6 4 0.4 102970 34
2010-12-14 08:19:59 51°16.969 2°52.806 7.3 2 0.4 102960 33
2010-12-14 08:20:05 51°16.987 2°52.788 6.5 5 0.4 102960 33
2010-12-14 08:20:11 51°17.005 2°52.769 8.5 1 0.4 102960 32
2010-12-14 08:20:15 51°17.017 2°52.757 13.2 360 0.4 102960 32
2010-12-14 08:20:19 51°17.029 2°52.746 12.5 357 0.4 102960 33
2010-12-14 08:20:25 51°17.047 2°52.728 10 3 0.4 102960 33
2010-12-14 08:20:30 51°17.062 2°52.715 5.7 -999 0.5 102970 34
2010-12-14 08:20:35 51°17.077 2°52.701 15.8 360 0.5 102970 34
2010-12-14 08:20:39 51°17.09 2°52.69 10.2 359 0.5 102960 34
2010-12-14 08:20:45 51°17.108 2°52.675 12.4 5 0.5 102960 34
2010-12-14 08:20:50 51°17.124 2°52.663 13.1 358 0.5 102950 34
2010-12-14 08:20:55 51°17.139 2°52.654 16.7 355 0.5 102950 34
2010-12-14 08:21:00 51°17.156 2°52.646 11.5 354 0.5 102940 34
2010-12-14 08:21:05 51°17.172 2°52.638 15.1 354 0.5 102940 34
2010-12-14 08:21:10 51°17.189 2°52.632 7 353 0.5 102960 34
2010-12-14 08:21:15 51°17.206 2°52.626 14.7 352 0.5 102960 34
2010-12-14 08:21:20 51°17.224 2°52.621 6.6 356 0.5 102950 33
2010-12-14 08:21:25 51°17.241 2°52.616 11.5 351 0.5 102950 33
2010-12-14 08:21:30 51°17.258 2°52.611 11.2 354 0.5 102940 32
2010-12-14 08:21:35 51°17.276 2°52.607 6.1 355 0.5 102940 32
2010-12-14 08:21:39 51°17.29 2°52.604 10.7 355 0.5 102950 34
2010-12-14 08:21:45 51°17.31 2°52.6 14 354 0.5 102950 34
2010-12-14 08:21:50 51°17.328 2°52.597 13.6 351 0.5 102940 33
2010-12-14 08:21:55 51°17.345 2°52.594 15.5 351 0.5 102940 33
2010-12-14 08:21:59 51°17.359 2°52.591 14.7 350 0.5 102940 34
2010-12-14 08:22:05 51°17.381 2°52.587 10.9 351 0.5 102940 34
2010-12-14 08:22:10 51°17.398 2°52.584 10.6 351 0.6 102960 33
2010-12-14 08:22:15 51°17.416 2°52.58 14.8 348 0.6 102960 33
2010-12-14 08:22:20 51°17.433 2°52.576 9.3 349 0.6 102950 34
2010-12-14 08:22:25 51°17.451 2°52.573 15.7 354 0.6 102950 34
2010-12-14 08:22:31 51°17.472 2°52.568 10.8 353 0.6 102950 35
2010-12-14 08:22:35 51°17.486 2°52.566 14.3 347 0.6 102950 35
2010-12-14 08:22:39 51°17.5 2°52.563 7.1 349 0.6 102950 32
2010-12-14 08:22:45 51°17.522 2°52.559 9.6 350 0.6 102950 32
2010-12-14 08:22:51 51°17.542 2°52.557 12.1 348 0.6 102960 34
2010-12-14 08:22:55 51°17.556 2°52.557 18.1 350 0.6 102960 34
2010-12-14 08:22:59 51°17.57 2°52.557 11.1 350 0.6 102940 33
2010-12-14 08:23:05 51°17.59 2°52.557 14.3 348 0.6 102940 33
2010-12-14 08:23:10 51°17.608 2°52.556 7.2 347 0.6 102950 33
2010-12-14 08:23:15 51°17.625 2°52.557 7.3 351 0.6 102950 33
2010-12-14 08:23:19 51°17.639 2°52.558 17.6 350 0.5 102960 34
2010-12-14 08:23:25 51°17.66 2°52.558 15.1 350 0.5 102960 34
2010-12-14 08:23:30 51°17.677 2°52.56 11.7 351 0.5 102930 32
2010-12-14 08:23:35 51°17.694 2°52.561 12.7 347 0.5 102930 32
2010-12-14 08:23:39 51°17.708 2°52.562 15.8 349 0.5 102950 34
2010-12-14 08:23:45 51°17.729 2°52.563 12.4 348 0.5 102950 34
2010-12-14 08:23:50 51°17.746 2°52.565 11.1 348 0.5 102940 33
2010-12-14 08:23:55 51°17.763 2°52.566 16.7 281 0.5 102940 33
2010-12-14 08:23:59 51°17.776 2°52.567 12.7 346 0.5 102950 32
2010-12-14 08:24:05 51°17.797 2°52.569 10.3 348 0.5 102950 32
2010-12-14 08:24:10 51°17.813 2°52.57 6 347 0.5 102960 32
2010-12-14 08:24:15 51°17.83 2°52.572 17.4 347 0.5 102960 32
2010-12-14 08:24:20 51°17.847 2°52.572 6.6 346 0.5 102950 32
2010-12-14 08:24:25 51°17.864 2°52.574 10.1 348 0.5 102950 32
2010-12-14 08:24:30 51°17.881 2°52.574 6.1 346 0.5 102950 33
2010-12-14 08:24:35 51°17.898 2°52.575 13.9 347 0.5 102950 33
2010-12-14 08:24:40 51°17.915 2°52.575 14.8 346 0.5 102960 32
2010-12-14 08:24:45 51°17.933 2°52.576 9.9 347 0.5 102960 32
2010-12-14 08:24:50 51°17.95 2°52.576 14.2 347 0.4 102960 33
2010-12-14 08:24:55 51°17.968 2°52.577 14 348 0.4 102960 33
2010-12-14 08:25:00 51°17.985 2°52.577 10.2 349 0.4 102980 33
2010-12-14 08:25:05 51°18.003 2°52.577 11.1 347 0.4 102980 33
2010-12-14 08:25:10 51°18.021 2°52.578 9.4 352 0.4 102960 33
2010-12-14 08:25:15 51°18.038 2°52.577 12.1 351 0.4 102960 33
2010-12-14 08:25:20 51°18.056 2°52.578 15.8 351 0.4 102970 33
2010-12-14 08:25:25 51°18.074 2°52.578 14.8 351 0.4 102970 33
2010-12-14 08:25:30 51°18.091 2°52.578 16.4 350 0.5 102970 33
2010-12-14 08:25:35 51°18.109 2°52.578 15.8 350 0.5 102970 33
2010-12-14 08:25:39 51°18.123 2°52.579 12.1 350 0.5 102960 32
2010-12-14 08:25:45 51°18.144 2°52.578 14.9 350 0.5 102960 32
2010-12-14 08:25:50 51°18.162 2°52.579 16 348 0.4 102950 32
2010-12-14 08:25:55 51°18.179 2°52.579 9.7 349 0.4 102950 32
2010-12-14 08:25:59 51°18.193 2°52.58 10.8 349 0.5 102970 33
2010-12-14 08:26:05 51°18.213 2°52.579 15.3 349 0.5 102970 33
2010-12-14 08:26:10 51°18.231 2°52.579 13.7 350 0.4 102960 32
2010-12-14 08:26:15 51°18.248 2°52.579 12.1 350 0.4 102960 32
2010-12-14 08:26:19 51°18.263 2°52.579 11.5 350 0.5 102960 32
2010-12-14 08:26:25 51°18.284 2°52.578 14.5 350 0.5 102960 32
2010-12-14 08:26:30 51°18.302 2°52.578 11.8 349 0.5 102960 32
2010-12-14 08:26:35 51°18.32 2°52.578 6.7 347 0.5 102960 32
2010-12-14 08:26:39 51°18.334 2°52.578 12 348 0.5 102950 32
2010-12-14 08:26:45 51°18.356 2°52.578 15.8 350 0.5 102950 32
2010-12-14 08:26:50 51°18.373 2°52.577 11.1 350 0.5 102960 32
2010-12-14 08:26:55 51°18.392 2°52.577 17.7 349 0.5 102960 32
2010-12-14 08:26:59 51°18.406 2°52.577 7.1 350 0.5 102960 34
2010-12-14 08:27:05 51°18.427 2°52.576 12.1 347 0.5 102960 34
2010-12-14 08:27:11 51°18.449 2°52.577 14.6 349 0.5 102970 32
2010-12-14 08:27:15 51°18.463 2°52.577 9.9 352 0.5 102970 32
2010-12-14 08:27:19 51°18.477 2°52.577 12.4 350 0.5 102960 32
2010-12-14 08:27:25 51°18.498 2°52.577 12.7 347 0.5 102960 32
2010-12-14 08:27:30 51°18.515 2°52.577 15.9 348 0.5 102950 34
2010-12-14 08:27:35 51°18.533 2°52.577 5.9 348 0.5 102950 34
2010-12-14 08:27:39 51°18.547 2°52.576 12.7 347 0.5 102980 33
2010-12-14 08:27:45 51°18.567 2°52.576 16 347 0.5 102980 33
2010-12-14 08:27:50 51°18.585 2°52.575 14.5 349 0.5 102950 32
2010-12-14 08:27:55 51°18.601 2°52.575 10.9 349 0.5 102950 32
2010-12-14 08:28:00 51°18.618 2°52.574 14.7 350 0.5 102970 33
2010-12-14 08:28:05 51°18.635 2°52.574 15.1 349 0.5 102970 33
2010-12-14 08:28:10 51°18.653 2°52.574 17.2 351 0.5 102970 32
2010-12-14 08:28:15 51°18.67 2°52.573 15.6 351 0.5 102970 32
2010-12-14 08:28:20 51°18.687 2°52.572 11.6 353 0.5 102980 32
2010-12-14 08:28:26 51°18.708 2°52.571 10.7 350 0.5 102980 32
2010-12-14 08:28:30 51°18.722 2°52.571 15.4 350 0.5 102960 32
2010-12-14 08:28:35 51°18.74 2°52.57 13 348 0.5 102960 32
2010-12-14 08:28:40 51°18.758 2°52.571 15.1 348 0.5 102970 34
2010-12-14 08:28:45 51°18.775 2°52.57 9.7 349 0.5 102970 34
2010-12-14 08:28:50 51°18.792 2°52.571 9.2 351 0.5 102970 33
2010-12-14 08:28:55 51°18.809 2°52.57 15 351 0.5 102970 33
2010-12-14 08:29:00 51°18.827 2°52.569 11.9 349 0.5 102980 32
2010-12-14 08:29:05 51°18.844 2°52.569 11.9 349 0.5 102980 32
2010-12-14 08:29:10 51°18.861 2°52.568 14.1 349 0.4 102960 34
2010-12-14 08:29:15 51°18.879 2°52.568 14 350 0.4 102960 34
2010-12-14 08:29:20 51°18.897 2°52.567 12.4 350 0.4 102970 33
2010-12-14 08:29:25 51°18.914 2°52.566 10.8 349 0.4 102970 33
2010-12-14 08:29:30 51°18.932 2°52.566 13.3 349 0.5 102980 33
2010-12-14 08:29:35 51°18.95 2°52.565 9.9 348 0.5 102980 33
2010-12-14 08:29:39 51°18.964 2°52.564 12.7 350 0.5 102990 33
2010-12-14 08:29:45 51°18.986 2°52.563 10 346 0.5 102990 33
2010-12-14 08:29:50 51°19.003 2°52.563 13.4 346 0.5 102970 33
2010-12-14 08:29:55 51°19.021 2°52.562 15.3 347 0.5 102970 33
2010-12-14 08:29:59 51°19.035 2°52.562 12.4 349 0.6 102980 34
2010-12-14 08:30:05 51°19.056 2°52.561 15.6 351 0.6 102980 34
2010-12-14 08:30:10 51°19.074 2°52.56 14.7 353 0.6 102980 33
2010-12-14 08:30:15 51°19.091 2°52.559 11.9 349 0.6 102980 33
2010-12-14 08:30:19 51°19.105 2°52.558 11.3 345 0.6 102960 34
2010-12-14 08:30:25 51°19.126 2°52.557 10.9 349 0.6 102960 34
2010-12-14 08:30:30 51°19.144 2°52.556 11.2 350 0.6 102960 33
2010-12-14 08:30:35 51°19.161 2°52.555 13.9 350 0.6 102960 33
2010-12-14 08:30:39 51°19.176 2°52.554 9.4 348 0.6 102970 33
2010-12-14 08:30:45 51°19.197 2°52.554 10.6 347 0.6 102970 33
2010-12-14 08:30:50 51°19.215 2°52.553 11 347 0.6 102980 33
2010-12-14 08:30:55 51°19.233 2°52.553 12.6 347 0.6 102980 33
2010-12-14 08:30:59 51°19.247 2°52.552 14.2 346 0.6 102970 33
2010-12-14 08:31:05 51°19.268 2°52.552 10.3 346 0.6 102970 33
2010-12-14 08:31:10 51°19.285 2°52.552 9.7 346 0.6 102980 33
2010-12-14 08:31:15 51°19.303 2°52.552 13.7 352 0.6 102980 33
2010-12-14 08:31:19 51°19.317 2°52.551 10.5 350 0.6 102980 34
2010-12-14 08:31:25 51°19.338 2°52.55 12.8 347 0.6 102980 34
2010-12-14 08:31:31 51°19.359 2°52.549 9.1 347 0.6 102960 33
2010-12-14 08:31:35 51°19.373 2°52.549 11 350 0.6 102960 33
2010-12-14 08:31:39 51°19.388 2°52.548 13 348 0.6 102980 33
2010-12-14 08:31:45 51°19.409 2°52.548 10.6 349 0.6 102980 33
2010-12-14 08:31:50 51°19.427 2°52.547 14.7 347 0.6 102990 32
2010-12-14 08:31:55 51°19.446 2°52.546 14.8 348 0.6 102990 32
2010-12-14 08:31:59 51°19.46 2°52.546 15.2 350 0.6 102980 33
2010-12-14 08:32:05 51°19.481 2°52.545 14.1 346 0.6 102980 33
2010-12-14 08:32:11 51°19.502 2°52.543 15.2 348 0.7 103000 34
2010-12-14 08:32:15 51°19.516 2°52.542 13 349 0.7 103000 34
2010-12-14 08:32:20 51°19.533 2°52.542 11.3 348 0.7 102980 34
2010-12-14 08:32:25 51°19.55 2°52.541 13.6 348 0.7 102980 34
2010-12-14 08:32:30 51°19.568 2°52.541 15.9 347 0.7 102970 34
2010-12-14 08:32:35 51°19.585 2°52.54 13.1 347 0.7 102970 34
2010-12-14 08:32:40 51°19.603 2°52.539 15.8 350 0.7 102990 34
2010-12-14 08:32:45 51°19.619 2°52.539 14.3 348 0.7 102990 34
2010-12-14 08:32:50 51°19.637 2°52.537 11.5 349 0.6 102960 34
2010-12-14 08:32:55 51°19.653 2°52.536 12.9 349 0.6 102960 34
2010-12-14 08:32:59 51°19.667 2°52.535 14.5 349 0.6 102970 33
2010-12-14 08:33:05 51°19.688 2°52.535 16 349 0.6 102970 33
2010-12-14 08:33:10 51°19.706 2°52.534 13.2 349 0.6 102950 34
2010-12-14 08:33:15 51°19.723 2°52.533 14.5 348 0.6 102950 34
2010-12-14 08:33:19 51°19.737 2°52.533 11.1 348 0.6 102970 33
2010-12-14 08:33:25 51°19.758 2°52.532 14.1 347 0.6 102970 33
2010-12-14 08:33:31 51°19.779 2°52.531 10 347 0.6 103000 32
2010-12-14 08:33:35 51°19.792 2°52.53 14.2 347 0.6 103000 32
2010-12-14 08:33:39 51°19.806 2°52.53 9.2 347 0.6 102980 32
2010-12-14 08:33:46 51°19.83 2°52.529 15.9 346 0.6 102980 32
2010-12-14 08:33:51 51°19.847 2°52.529 15.9 348 0.6 102970 34
2010-12-14 08:33:55 51°19.86 2°52.528 5.3 282 0.6 102970 34
2010-12-14 08:34:00 51°19.876 2°52.528 5.8 347 0.6 102990 34
2010-12-14 08:34:05 51°19.893 2°52.527 14.5 348 0.6 102990 34
2010-12-14 08:34:10 51°19.91 2°52.527 13.4 348 0.6 102990 33
2010-12-14 08:34:15 51°19.927 2°52.526 16.4 350 0.6 102990 33
2010-12-14 08:34:20 51°19.945 2°52.525 15.2 350 0.6 102990 34
2010-12-14 08:34:25 51°19.963 2°52.524 14.2 353 0.6 102990 34
2010-12-14 08:34:30 51°19.98 2°52.522 10.5 353 0.6 102980 34
2010-12-14 08:34:35 51°19.998 2°52.521 10.9 350 0.6 102980 34
2010-12-14 08:34:39 51°20.012 2°52.521 13 350 0.6 102980 33
2010-12-14 08:34:45 51°20.032 2°52.519 13.8 350 0.6 102980 33
2010-12-14 08:34:50 51°20.05 2°52.518 13.6 348 0.6 102970 33
2010-12-14 08:34:55 51°20.068 2°52.518 13.3 349 0.6 102970 33
2010-12-14 08:34:59 51°20.082 2°52.517 14.6 348 0.6 102960 33
2010-12-14 08:35:05 51°20.103 2°52.516 12.9 348 0.6 102960 33
2010-12-14 08:35:10 51°20.12 2°52.516 12.5 351 0.6 102980 33
2010-12-14 08:35:15 51°20.138 2°52.515 13.6 350 0.6 102980 33
2010-12-14 08:35:20 51°20.156 2°52.514 13.4 350 0.6 102980 33
2010-12-14 08:35:25 51°20.174 2°52.513 10.2 351 0.6 102980 33
2010-12-14 08:35:30 51°20.191 2°52.512 12.2 351 0.6 102990 34
2010-12-14 08:35:35 51°20.209 2°52.512 14.6 351 0.6 102990 34
2010-12-14 08:35:39 51°20.223 2°52.51 15.2 351 0.7 102980 33
2010-12-14 08:35:45 51°20.244 2°52.51 14.1 352 0.7 102980 33
2010-12-14 08:35:51 51°20.266 2°52.509 13.2 348 0.7 102980 35
2010-12-14 08:35:55 51°20.28 2°52.508 13.5 350 0.7 102980 35
2010-12-14 08:35:59 51°20.294 2°52.508 5.9 353 0.7 102980 33
2010-12-14 08:36:05 51°20.315 2°52.507 14.1 350 0.7 102980 33
2010-12-14 08:36:10 51°20.333 2°52.506 12.1 352 0.7 102970 34
2010-12-14 08:36:15 51°20.35 2°52.505 10.5 351 0.7 102970 34
2010-12-14 08:36:19 51°20.364 2°52.504 12.5 351 0.8 102980 34
2010-12-14 08:36:25 51°20.384 2°52.503 9.6 349 0.8 102980 34
2010-12-14 08:36:31 51°20.405 2°52.502 9.6 350 0.7 102970 33
2010-12-14 08:36:35 51°20.419 2°52.502 13.2 347 0.7 102970 33
2010-12-14 08:36:40 51°20.436 2°52.5 11.4 348 0.8 102990 33
2010-12-14 08:36:45 51°20.454 2°52.499 10.4 348 0.8 102990 33
2010-12-14 08:36:50 51°20.472 2°52.498 5.5 346 0.7 102980 33
2010-12-14 08:36:55 51°20.489 2°52.497 12.1 347 0.7 102980 33
2010-12-14 08:37:00 51°20.507 2°52.496 9.9 349 0.7 102990 32
2010-12-14 08:37:05 51°20.525 2°52.495 16.7 347 0.7 102990 32
2010-12-14 08:37:10 51°20.543 2°52.494 12.4 348 0.7 102990 33
2010-12-14 08:37:15 51°20.559 2°52.493 11.9 352 0.7 102990 33
2010-12-14 08:37:20 51°20.576 2°52.492 7.9 352 0.7 103000 33
2010-12-14 08:37:25 51°20.593 2°52.491 12.1 349 0.7 103000 33
2010-12-14 08:37:30 51°20.61 2°52.49 14 350 0.7 102990 33
2010-12-14 08:37:35 51°20.627 2°52.489 12.2 351 0.7 102990 33
2010-12-14 08:37:39 51°20.641 2°52.488 11.9 350 0.7 102990 33
2010-12-14 08:37:45 51°20.661 2°52.487 9.9 350 0.7 102990 33
2010-12-14 08:37:50 51°20.679 2°52.485 9.3 349 0.6 102990 33
2010-12-14 08:37:55 51°20.697 2°52.485 11.7 280 0.6 102990 33
2010-12-14 08:37:59 51°20.711 2°52.484 14.9 350 0.6 102990 33
2010-12-14 08:38:05 51°20.732 2°52.483 7.4 350 0.6 102990 33
2010-12-14 08:38:11 51°20.754 2°52.482 6.2 350 0.7 103000 33
2010-12-14 08:38:15 51°20.768 2°52.482 13.4 350 0.7 103000 33
2010-12-14 08:38:19 51°20.782 2°52.481 15.5 350 0.7 102990 33
2010-12-14 08:38:25 51°20.804 2°52.481 15.1 350 0.7 102990 33
2010-12-14 08:38:30 51°20.822 2°52.48 10.1 351 0.7 102980 33
2010-12-14 08:38:35 51°20.839 2°52.479 14.2 350 0.7 102980 33
2010-12-14 08:38:40 51°20.857 2°52.478 10.3 348 0.7 102980 34
2010-12-14 08:38:45 51°20.875 2°52.477 14.7 349 0.7 102980 34
2010-12-14 08:38:51 51°20.896 2°52.476 14.8 348 0.7 102990 34
2010-12-14 08:38:55 51°20.911 2°52.476 13.6 347 0.7 102990 34
2010-12-14 08:38:59 51°20.925 2°52.475 14.4 351 0.7 102980 33
2010-12-14 08:39:05 51°20.947 2°52.474 15 349 0.7 102980 33
2010-12-14 08:39:10 51°20.965 2°52.473 6.6 352 0.7 102980 34
2010-12-14 08:39:15 51°20.982 2°52.472 9.7 349 0.7 102980 34
2010-12-14 08:39:19 51°20.997 2°52.471 13.5 349 0.7 102980 32
2010-12-14 08:39:25 51°21.018 2°52.471 12.1 348 0.7 102980 32
2010-12-14 08:39:30 51°21.036 2°52.47 9.2 347 0.7 102980 33
2010-12-14 08:39:35 51°21.053 2°52.47 10.3 345 0.7 102980 33
2010-12-14 08:39:39 51°21.068 2°52.469 4.4 347 0.7 102980 33
2010-12-14 08:39:45 51°21.089 2°52.468 12.5 348 0.7 102980 33
2010-12-14 08:39:50 51°21.107 2°52.467 10.1 348 0.7 103000 34
2010-12-14 08:39:55 51°21.125 2°52.466 9.9 280 0.7 103000 34
2010-12-14 08:39:59 51°21.14 2°52.465 11.8 348 0.7 102990 34
2010-12-14 08:40:05 51°21.161 2°52.464 13 349 0.7 102990 34
2010-12-14 08:40:10 51°21.179 2°52.462 10.3 351 0.7 102990 32
2010-12-14 08:40:15 51°21.197 2°52.462 12.4 349 0.7 102990 32
2010-12-14 08:40:20 51°21.214 2°52.461 9.4 348 0.7 102990 33
2010-12-14 08:40:25 51°21.232 2°52.459 12.6 350 0.7 102990 33
2010-12-14 08:40:30 51°21.249 2°52.459 10.9 348 0.7 102990 34
2010-12-14 08:40:35 51°21.266 2°52.458 9.4 349 0.7 102990 34
2010-12-14 08:40:40 51°21.284 2°52.457 14.3 350 0.6 102980 34
2010-12-14 08:40:45 51°21.301 2°52.457 10 349 0.6 102980 34
2010-12-14 08:40:51 51°21.323 2°52.456 6 351 0.7 103010 32
2010-12-14 08:40:55 51°21.337 2°52.456 13.9 351 0.7 103010 32
2010-12-14 08:41:00 51°21.355 2°52.455 10.8 350 0.6 102980 32
2010-12-14 08:41:05 51°21.373 2°52.454 12.3 349 0.6 102980 32
2010-12-14 08:41:10 51°21.391 2°52.453 10.3 347 0.7 102980 34
2010-12-14 08:41:15 51°21.409 2°52.452 12.4 348 0.7 102980 34
2010-12-14 08:41:20 51°21.426 2°52.451 12 347 0.7 102990 34
2010-12-14 08:41:25 51°21.444 2°52.45 10.1 350 0.7 102990 34
2010-12-14 08:41:30 51°21.463 2°52.449 12.6 350 0.7 102990 34
2010-12-14 08:41:35 51°21.48 2°52.448 5.4 351 0.7 102990 34
2010-12-14 08:41:40 51°21.499 2°52.448 5.5 348 0.7 103010 33
2010-12-14 08:41:45 51°21.517 2°52.447 12.9 351 0.7 103010 33
2010-12-14 08:41:50 51°21.534 2°52.446 9.6 349 0.7 102990 35
2010-12-14 08:41:55 51°21.552 2°52.445 10.9 349 0.7 102990 35
2010-12-14 08:42:00 51°21.569 2°52.444 13.5 352 0.7 102990 34
2010-12-14 08:42:05 51°21.586 2°52.443 12.6 350 0.7 102990 34
2010-12-14 08:42:10 51°21.603 2°52.442 10.5 352 0.7 102990 35
2010-12-14 08:42:15 51°21.621 2°52.441 13.9 351 0.7 102990 35
2010-12-14 08:42:20 51°21.639 2°52.44 13.2 351 0.7 102990 34
2010-12-14 08:42:26 51°21.66 2°52.439 14.5 352 0.7 102990 34
2010-12-14 08:42:30 51°21.674 2°52.438 13.7 351 0.7 102980 32
2010-12-14 08:42:35 51°21.692 2°52.438 8.5 354 0.7 102980 32
2010-12-14 08:42:40 51°21.71 2°52.437 12.5 351 0.7 102990 35
2010-12-14 08:42:45 51°21.728 2°52.436 12.9 353 0.7 102990 35
2010-12-14 08:42:50 51°21.746 2°52.435 9.6 346 0.7 102980 33
2010-12-14 08:42:55 51°21.763 2°52.434 9 349 0.7 102980 33
2010-12-14 08:42:59 51°21.778 2°52.434 15 348 0.7 102990 32
2010-12-14 08:43:05 51°21.799 2°52.433 6.3 351 0.7 102990 32
2010-12-14 08:43:11 51°21.821 2°52.432 13.9 352 0.8 102970 35
2010-12-14 08:43:15 51°21.835 2°52.431 5.9 351 0.8 102970 35
2010-12-14 08:43:19 51°21.849 2°52.43 10.1 352 0.8 102980 35
2010-12-14 08:43:25 51°21.871 2°52.429 14.7 349 0.8 102980 35
2010-12-14 08:43:30 51°21.889 2°52.429 14.9 349 0.8 102990 33
2010-12-14 08:43:35 51°21.907 2°52.428 15.6 351 0.8 102990 33
2010-12-14 08:43:39 51°21.921 2°52.428 13.4 350 0.8 102980 35
2010-12-14 08:43:45 51°21.942 2°52.428 10.6 349 0.8 102980 35
2010-12-14 08:43:50 51°21.96 2°52.428 11.5 350 0.8 102980 34
2010-12-14 08:43:55 51°21.978 2°52.427 8.8 350 0.8 102980 34
2010-12-14 08:43:59 51°21.992 2°52.426 13.4 351 0.8 102980 34
2010-12-14 08:44:05 51°22.013 2°52.425 12.9 350 0.8 102980 34
2010-12-14 08:44:10 51°22.031 2°52.424 8.9 350 0.8 103000 34
2010-12-14 08:44:15 51°22.048 2°52.424 12.3 350 0.8 103000 34
2010-12-14 08:44:20 51°22.066 2°52.423 10.8 350 0.8 102980 34
2010-12-14 08:44:25 51°22.084 2°52.422 11.3 348 0.8 102980 34
2010-12-14 08:44:30 51°22.101 2°52.422 13 351 0.8 102980 34
2010-12-14 08:44:35 51°22.119 2°52.42 9.8 350 0.8 102980 34
2010-12-14 08:44:39 51°22.133 2°52.42 13.7 353 0.7 102990 32
2010-12-14 08:44:45 51°22.155 2°52.419 4.9 356 0.7 102990 32
2010-12-14 08:44:51 51°22.175 2°52.418 9.5 355 0.7 103000 34
2010-12-14 08:44:55 51°22.189 2°52.418 12.9 347 0.7 103000 34
2010-12-14 08:44:59 51°22.203 2°52.418 13.1 351 0.8 102990 32
2010-12-14 08:45:05 51°22.224 2°52.417 12.8 348 0.8 102990 32
2010-12-14 08:45:10 51°22.242 2°52.417 13.9 350 0.8 103000 34
2010-12-14 08:45:15 51°22.26 2°52.416 13.5 352 0.8 103000 34
2010-12-14 08:45:19 51°22.275 2°52.416 9.6 353 0.8 102990 35
2010-12-14 08:45:25 51°22.296 2°52.415 11.2 348 0.8 102990 35
2010-12-14 08:45:30 51°22.315 2°52.414 11.1 352 0.9 103000 34
2010-12-14 08:45:35 51°22.333 2°52.414 9.9 349 0.9 103000 34
2010-12-14 08:45:39 51°22.347 2°52.413 13.4 350 0.9 102980 33
2010-12-14 08:45:45 51°22.368 2°52.412 10.9 351 0.9 102980 33